DW1774 Weather Reports


Display with metric or nautical units.
time (UTC)temp
F
wind
direction
speed
MPH
gust
MPH
rain 1hr
in
rain 24hr
in
rain mn
in
humidity
%
barometer
mb
20260831205904 87 220 1.0 8.0 0.00 0.01 0.01 73 1014.3
20260831204904 88 193 3.0 14.0 0.00 0.01 0.01 73 1014.5
20260831204404 88 174 5.0 14.0 0.00 0.01 0.01 72 1014.5
20260831203904 88 148 2.0 8.0 0.00 0.01 0.01 72 1014.6
20260831203405 89 178 2.0 8.0 0.00 0.01 0.01 71 1014.7
20260831202905 89 185 5.0 8.0 0.00 0.01 0.01 72 1014.8
20260831202403 90 153 2.0 8.0 0.00 0.01 0.01 71 1014.7
20260831201904 90 69 1.0 5.0 0.00 0.01 0.01 70 1014.4
20260831201404 90 49 2.0 7.0 0.00 0.01 0.01 69 1014.6
20260831200904 91 44 2.0 8.0 0.00 0.01 0.01 70 1014.7
20260831195904 91 14 3.0 5.0 0.00 0.01 0.01 69 1014.8
20260831195405 91 356 3.0 5.0 0.00 0.01 0.01 72 1014.9
20260831194404 91 298 0.0 0.0 0.01 0.01 0.01 70 1014.9
20260831193904 91 298 0.0 3.0 0.01 0.01 0.01 70 1015.0
20260831193404 91 298 0.0 3.0 0.01 0.01 0.01 71 1015.0
20260831192904 90 329 2.0 3.0 0.01 0.01 0.01 73 1015.0
20260831192404 90 333 1.0 10.0 0.01 0.01 0.01 74 1015.1
20260831191904 89 312 2.0 10.0 0.01 0.01 0.01 80 1015.2
20260831191404 88 293 10.0 10.0 0.01 0.01 0.01 82 1015.2
20260831190904 87 290 10.0 10.0 0.01 0.01 0.01 83 1015.4
20260831190404 87 0 3.0 6.0 0.01 0.01 0.01 84 1015.4
20260831185905 87 323 1.0 3.0 0.01 0.01 0.01 80 1015.4
20260831184903 88 327 2.0 6.0 0.01 0.01 0.01 76 1015.5
20260831184404 89 294 2.0 10.0 0.00 0.00 0.00 71 1015.6
20260831183904 90 307 5.0 10.0 0.00 0.00 0.00 71 1015.6
20260831183404 90 314 2.0 5.0 0.00 0.00 0.00 71 1015.6
20260831182904 91 288 1.0 3.0 0.00 0.00 0.00 71 1015.7
20260831181904 90 294 1.0 3.0 0.00 0.00 0.00 70 1015.7
20260831180905 90 280 1.0 6.0 0.00 0.00 0.00 72 1015.8
20260831180405 90 264 2.0 9.0 0.00 0.00 0.00 73 1015.9
20260831175904 90 266 2.0 9.0 0.00 0.00 0.00 72 1015.9
20260831175404 89 294 6.0 9.0 0.00 0.00 0.00 73 1015.9
20260831174904 89 213 1.0 6.0 0.00 0.00 0.00 74 1015.9
20260831174403 88 214 2.0 7.0 0.00 0.00 0.00 74 1015.9
20260831173904 88 209 3.0 7.0 0.00 0.00 0.00 73 1016.0
20260831173403 88 205 7.0 7.0 0.00 0.00 0.00 73 1016.1
20260831172404 90 188 7.0 7.0 0.00 0.00 0.00 74 1016.2
20260831171904 90 186 7.0 7.0 0.00 0.00 0.00 74 1016.2
20260831171405 91 174 6.0 7.0 0.00 0.00 0.00 72 1016.1
20260831170903 91 32 0.0 3.0 0.00 0.00 0.00 68 1016.2
20260831170404 92 31 2.0 3.0 0.00 0.00 0.00 68 1016.2
20260831165904 92 358 1.0 2.0 0.00 0.00 0.00 67 1016.2
20260831164903 92 352 2.0 3.0 0.00 0.00 0.00 67 1016.2
20260831142903 80 146 0.0 0.0 0.00 0.00 0.00 93 1016.1
20260831142404 80 146 0.0 0.0 0.00 0.00 0.00 94 1016.1
20260831141904 80 146 0.0 0.0 0.00 0.00 0.00 94 1016.1
20260831141404 80 146 0.0 0.0 0.00 0.00 0.00 94 1016.0
20260831140904 79 146 0.0 0.0 0.00 0.00 0.00 93 1016.0
20260831140404 79 146 0.0 0.0 0.00 0.00 0.00 94 1016.0
20260831135904 79 146 0.0 0.0 0.00 0.00 0.00 94 1016.0
20260831135404 79 146 0.0 0.0 0.00 0.00 0.00 94 1015.9
20260831134904 79 146 0.0 0.0 0.00 0.00 0.00 94 1015.8
20260831134403 78 146 0.0 0.0 0.00 0.00 0.00 94 1015.9
20260831133903 78 146 0.0 0.0 0.00 0.00 0.00 93 1015.8
20260831133404 78 146 0.0 0.0 0.00 0.00 0.00 93 1015.6
20260831132904 78 146 0.0 0.0 0.00 0.00 0.00 93 1015.6
20260831132403 78 146 0.0 0.0 0.00 0.00 0.00 93 1015.6
20260831131903 78 146 0.0 0.0 0.00 0.00 0.00 93 1015.5
20260831131404 78 146 0.0 0.0 0.00 0.00 0.00 93 1015.5
20260831130903 78 146 0.0 0.0 0.00 0.00 0.00 93 1015.3
20260831125904 78 146 0.0 0.0 0.00 0.00 0.00 92 1015.1
20260831125404 78 146 0.0 0.0 0.00 0.00 0.00 92 1015.1
20260831124905 77 146 0.0 0.0 0.00 0.00 0.00 92 1015.1
20260831124404 77 146 0.0 0.0 0.00 0.00 0.00 92 1015.0
20260831123904 77 146 0.0 0.0 0.00 0.00 0.00 92 1014.9
20260831123404 77 146 0.0 0.0 0.00 0.00 0.00 92 1014.8
20260831122404 77 146 0.0 0.0 0.00 0.00 0.00 92 1014.8
20260831121905 77 146 0.0 0.0 0.00 0.00 0.00 92 1014.7
20260831121403 77 146 0.0 0.0 0.00 0.00 0.00 92 1014.7
20260831120903 77 146 0.0 0.0 0.00 0.00 0.00 92 1014.7
20260831120404 77 146 0.0 0.0 0.00 0.00 0.00 91 1014.5
20260831115903 77 146 0.0 0.0 0.00 0.00 0.00 91 1014.6
20260831115404 77 146 0.0 0.0 0.00 0.00 0.00 91 1014.6
20260831114904 77 146 0.0 0.0 0.00 0.00 0.00 91 1014.6
20260831114404 77 146 0.0 0.0 0.00 0.00 0.00 91 1014.6
20260831113904 77 146 0.0 0.0 0.00 0.00 0.00 91 1014.5
20260831112904 78 146 0.0 0.0 0.00 0.00 0.00 91 1014.4
20260831112403 78 146 0.0 0.0 0.00 0.00 0.00 91 1014.3
20260831111904 78 146 0.0 0.0 0.00 0.00 0.00 91 1014.5
20260831111405 78 146 0.0 0.0 0.00 0.00 0.00 91 1014.4
20260831110904 78 146 0.0 0.0 0.00 0.00 0.00 91 1014.2
20260831110404 78 146 0.0 0.0 0.00 0.00 0.00 91 1014.3
20260831105404 78 146 0.0 0.0 0.00 0.00 0.00 91 1014.3
20260831104904 78 146 0.0 0.0 0.00 0.00 0.00 90 1014.3
20260831104404 78 146 0.0 0.0 0.00 0.00 0.00 90 1014.3
20260831103904 78 146 0.0 0.0 0.00 0.00 0.00 90 1014.6
20260831103404 78 146 0.0 0.0 0.00 0.00 0.00 90 1014.5
20260831102903 78 146 0.0 0.0 0.00 0.00 0.00 90 1014.5
20260831102404 78 146 0.0 0.0 0.00 0.00 0.00 90 1014.5
20260831101904 78 146 0.0 0.0 0.00 0.00 0.00 90 1014.4
20260831101404 78 146 0.0 0.0 0.00 0.00 0.00 90 1014.5
20260831095904 78 146 0.0 0.0 0.00 0.00 0.00 90 1014.5
20260831094905 78 146 0.0 0.0 0.00 0.00 0.00 89 1014.5
20260831094404 78 146 0.0 0.0 0.00 0.00 0.00 89 1014.5
20260831093903 79 146 0.0 0.0 0.00 0.00 0.00 89 1014.5
20260831093403 79 146 0.0 0.0 0.00 0.00 0.00 88 1014.4
20260831092904 79 146 0.0 0.0 0.00 0.00 0.00 88 1014.4
20260831092403 79 146 0.0 0.0 0.00 0.00 0.00 88 1014.4
20260831091904 79 146 0.0 0.0 0.00 0.00 0.00 88 1014.2
20260831091404 79 146 0.0 0.0 0.00 0.00 0.00 88 1014.2
20260831090903 79 146 0.0 0.0 0.00 0.00 0.00 88 1014.2
20260831090403 79 146 0.0 0.0 0.00 0.00 0.00 88 1014.2
20260831085903 79 146 0.0 0.0 0.00 0.00 0.00 88 1014.2
20260831085404 79 146 0.0 0.0 0.00 0.00 0.00 88 1014.2
20260831084904 79 146 0.0 0.0 0.00 0.00 0.00 88 1014.3
20260831084404 79 146 0.0 0.0 0.00 0.00 0.00 88 1014.3
20260831083904 79 146 0.0 0.0 0.00 0.00 0.00 87 1014.4
20260831083404 80 146 0.0 0.0 0.00 0.00 0.00 87 1014.3
20260831082904 80 146 0.0 0.0 0.00 0.00 0.00 87 1014.3
20260831082404 80 146 0.0 0.0 0.00 0.00 0.00 87 1014.4
20260831081903 80 146 0.0 0.0 0.00 0.00 0.00 86 1014.5
20260831081404 80 146 0.0 0.0 0.00 0.00 0.00 86 1014.5
20260831080903 80 146 0.0 0.0 0.00 0.00 0.00 86 1014.5
20260831080404 80 146 0.0 0.0 0.00 0.00 0.00 86 1014.7
20260831075904 80 146 0.0 0.0 0.00 0.00 0.00 86 1014.7
20260831075404 80 146 0.0 0.0 0.00 0.00 0.00 86 1014.7
20260831074904 80 146 0.0 0.0 0.00 0.00 0.00 86 1014.6
20260831073904 80 146 0.0 0.0 0.00 0.00 0.00 86 1014.6
20260831073403 80 146 0.0 0.0 0.00 0.00 0.00 86 1014.6
20260831072404 81 146 0.0 1.0 0.00 0.00 0.00 86 1014.6
20260831071904 81 146 0.0 1.0 0.00 0.00 0.00 86 1014.6
20260831071404 81 146 0.0 2.0 0.00 0.00 0.00 85 1014.7
20260831070904 81 146 1.0 2.0 0.00 0.00 0.00 85 1014.7
20260831070403 81 146 0.0 1.0 0.00 0.00 0.00 85 1014.8
20260831065904 81 146 0.0 1.0 0.00 0.00 0.00 85 1014.7
20260831065403 81 146 0.0 1.0 0.00 0.00 0.00 85 1014.7
20260831064904 81 146 0.0 0.0 0.00 0.00 0.00 85 1014.7
20260831064404 81 146 0.0 1.0 0.00 0.00 0.00 85 1014.7
20260831063904 81 146 0.0 1.0 0.00 0.00 0.00 85 1014.8
20260831063404 81 146 1.0 1.0 0.00 0.00 0.00 84 1014.8
20260831062904 81 146 0.0 1.0 0.00 0.00 0.00 84 1014.9
20260831061904 81 146 1.0 2.0 0.00 0.00 0.00 84 1014.9
20260831061404 82 146 1.0 2.0 0.00 0.00 0.00 84 1014.9
20260831060403 82 145 0.0 1.0 0.00 0.00 0.00 83 1014.9
20260831055905 82 145 0.0 0.0 0.00 0.00 0.00 83 1014.9
20260831054904 82 145 1.0 2.0 0.00 0.00 0.00 83 1014.9
20260831054404 82 145 0.0 2.0 0.00 0.00 0.00 83 1014.9
20260831053904 82 142 0.0 5.0 0.00 0.00 0.00 83 1014.8
20260831053404 82 142 1.0 5.0 0.00 0.00 0.00 83 1014.8
20260831052904 82 172 4.0 5.0 0.00 0.00 0.00 83 1014.8
20260831052404 82 173 5.0 5.0 0.00 0.00 0.00 82 1014.7
20260831051904 82 173 2.0 5.0 0.00 0.00 0.00 82 1014.8
20260831051404 82 153 0.0 1.0 0.00 0.00 0.00 82 1014.7
20260831050904 82 153 0.0 2.0 0.00 0.00 0.00 82 1014.6
20260831050403 82 153 0.0 2.0 0.00 0.00 0.00 81 1014.7
20260831045904 82 153 0.0 2.0 0.00 0.00 0.00 81 1014.6
20260831045404 82 153 1.0 2.0 0.00 0.00 0.00 81 1014.6
20260831044904 82 153 0.0 1.0 0.00 0.00 0.00 80 1014.6
20260831044404 82 153 0.0 0.0 0.00 0.00 0.00 80 1014.7
20260831043905 82 153 0.0 2.0 0.00 0.00 0.00 80 1014.7
20260831043404 82 153 0.0 2.0 0.00 0.00 0.00 80 1014.6
20260831042904 83 150 0.0 2.0 0.00 0.00 0.00 79 1014.6
20260831042405 83 149 0.0 2.0 0.00 0.00 0.00 79 1014.6
20260831041904 83 149 0.0 2.0 0.00 0.00 0.00 79 1014.6
20260831041404 83 149 0.0 2.0 0.00 0.00 0.00 79 1014.6
20260831040904 83 149 0.0 2.0 0.00 0.00 0.00 79 1014.6
20260831040404 83 148 1.0 2.0 0.00 0.00 0.00 78 1014.5
20260831035904 83 148 0.0 1.0 0.00 0.00 0.00 78 1014.5
20260831034904 83 148 0.0 1.0 0.00 0.00 0.00 78 1014.5
20260831034405 83 148 0.0 1.0 0.00 0.00 0.00 78 1014.4
20260831033903 84 148 0.0 1.0 0.00 0.00 0.00 77 1014.4
20260831033404 84 148 0.0 1.0 0.00 0.00 0.00 77 1014.4
20260831032904 84 148 0.0 1.0 0.00 0.00 0.00 77 1014.4
20260831032404 84 148 0.0 1.0 0.00 0.00 0.00 76 1014.3
20260831031404 84 148 0.0 1.0 0.00 0.00 0.00 76 1014.2
20260831030904 84 148 0.0 2.0 0.00 0.00 0.00 76 1014.2
20260831030405 84 148 1.0 2.0 0.00 0.00 0.00 75 1014.2
20260831025904 85 147 1.0 2.0 0.00 0.00 0.00 75 1014.1
20260831025404 85 146 0.0 1.0 0.00 0.00 0.00 75 1014.0
20260831024405 85 146 0.0 3.0 0.00 0.00 0.00 74 1013.9
20260831022904 85 158 1.0 6.0 0.00 0.00 0.00 73 1013.7
20260831022405 85 158 3.0 6.0 0.00 0.00 0.00 73 1013.7
20260831021904 85 167 1.0 5.0 0.00 0.00 0.00 73 1013.6
20260831021403 86 138 2.0 5.0 0.00 0.00 0.00 72 1013.5
20260831020404 86 153 1.0 2.0 0.00 0.00 0.00 72 1013.5
20260831015904 86 154 1.0 5.0 0.00 0.00 0.00 71 1013.4
20260831015403 86 154 2.0 7.0 0.00 0.00 0.00 71 1013.4
20260831014904 86 150 2.0 7.0 0.00 0.00 0.00 71 1013.4
20260831014404 87 163 1.0 5.0 0.00 0.00 0.00 70 1013.3
20260831013404 87 163 2.0 2.0 0.00 0.00 0.00 69 1013.3
20260831012903 87 163 1.0 6.0 0.00 0.00 0.00 69 1013.2
20260831012404 87 161 2.0 6.0 0.00 0.00 0.00 68 1013.2
20260831011905 87 181 4.0 6.0 0.00 0.00 0.00 67 1013.1
20260831011404 88 152 3.0 6.0 0.00 0.00 0.00 67 1013.2
20260831010904 88 169 2.0 6.0 0.00 0.00 0.00 66 1013.1
20260831010404 88 164 2.0 6.0 0.00 0.00 0.00 66 1012.9
20260831005904 89 142 3.0 6.0 0.00 0.00 0.00 65 1013.1
20260831004904 89 164 3.0 7.0 0.00 0.00 0.00 63 1013.0
20260831004404 89 163 3.0 7.0 0.00 0.00 0.00 62 1013.0
20260831003403 90 153 2.0 6.0 0.00 0.00 0.00 62 1012.9
20260831002904 90 178 2.0 6.0 0.00 0.00 0.00 60 1012.9
20260831002404 91 169 2.0 3.0 0.00 0.00 0.00 59 1013.0
20260831001904 91 190 3.0 7.0 0.00 0.00 0.00 58 1013.0
20260831001403 91 139 3.0 7.0 0.00 0.00 0.00 56 1013.1
20260831000903 91 138 2.0 9.0 0.00 0.00 0.00 57 1013.1
20260831000404 92 165 3.0 9.0 0.00 0.00 0.00 56 1013.2
20260830235905 92 150 3.0 8.0 0.00 0.00 0.00 56 1013.2
20260830235403 92 146 6.0 7.0 0.00 0.00 0.00 56 1013.0
20260830234904 93 130 4.0 8.0 0.00 0.00 0.00 56 1013.0
20260830234404 93 155 3.0 8.0 0.00 0.00 0.00 54 1013.0
20260830233905 94 134 5.0 8.0 0.00 0.00 0.00 54 1013.0
20260830233403 94 146 5.0 9.0 0.00 0.00 0.00 53 1013.0
20260830232403 95 168 3.0 9.0 0.00 0.00 0.00 53 1013.0
20260830231904 96 136 6.0 9.0 0.00 0.00 0.00 52 1013.0
20260830230904 96 140 5.0 12.0 0.00 0.00 0.00 52 1013.0
20260830230405 96 131 7.0 12.0 0.00 0.00 0.00 51 1013.0
20260830225904 96 98 5.0 10.0 0.00 0.00 0.00 52 1013.0
20260830225403 96 148 7.0 10.0 0.00 0.00 0.00 53 1012.9
20260830224903 96 127 3.0 10.0 0.00 0.00 0.00 54 1012.9
20260830224404 97 89 6.0 10.0 0.00 0.00 0.00 53 1012.9
20260830223904 98 149 6.0 10.0 0.00 0.00 0.00 53 1012.8
20260830222904 98 124 3.0 10.0 0.00 0.00 0.00 52 1012.9
20260830222404 99 134 7.0 10.0 0.00 0.00 0.00 52 1012.8
20260830221904 99 133 7.0 13.0 0.00 0.00 0.00 52 1012.8
20260830221404 99 118 6.0 13.0 0.00 0.00 0.00 52 1012.8
20260830220905 98 123 3.0 8.0 0.00 0.00 0.00 53 1012.9
20260830220404 99 85 4.0 10.0 0.00 0.00 0.00 53 1012.8
20260830215904 99 87 3.0 10.0 0.00 0.00 0.00 54 1012.8
20260830215405 99 126 7.0 10.0 0.00 0.00 0.00 53 1012.8
20260830214904 99 88 3.0 14.0 0.00 0.00 0.00 54 1012.9
20260830214403 99 108 7.0 14.0 0.00 0.00 0.00 53 1012.8
20260830213904 99 113 6.0 13.0 0.00 0.00 0.00 54 1012.9
20260830213404 99 127 3.0 9.0 0.00 0.00 0.00 53 1012.9
20260830212904 100 100 7.0 9.0 0.00 0.00 0.00 52 1013.0
20260830212405 100 181 3.0 9.0 0.00 0.00 0.00 52 1013.1
20260830211405 100 89 7.0 9.0 0.00 0.00 0.00 52 1013.2
20260830210904 100 135 5.0 10.0 0.00 0.00 0.00 52 1013.2